Find Starlink 32265

NORAD ID: 60415 Int'l Des: 2024-141 Owner: SPXS Country: US Constellation: starlink operational
LEOCIRCULAR

リアルタイム位置

3D地球を読み込み中...

Starlink 32265について

説明を読み込み中...

次回通過

Passes for default location (London). Set your location on the main map for personalized predictions.

高度履歴

Loading altitude history...

軌道要素

1 60415U 24141T 26122.91356124 -.00001280 00000-0 -26770-4 0 9991
2 60415 53.1606 350.6435 0001289 48.1433 311.9679 15.34389439 97885
Epoch: May 2, 2026 • Age: 9 hours

現在のステータス

高度 472.1 km
速度 7.63 km/s
衛星直下点 -30.56°S, 5.48°W
打ち上げ日 Aug 10, 2024
運用期間 1.7 years
タイプ internet

技術仕様

分類 Payload
質量 730.00 kg
乾燥質量 700.00 kg
総質量 730.00 kg
長さ 0.30 m
直径 4.10 m
スパン 29.00 m
形状 Box + pan
製造者 SPXS
バスタイプ Starlink V2M
フェーズステータス In Orbit
所有者/国 SPXS/US

Most Searched